• în România
  • Lista ţărilor
  • Pe 7 zile
  • Temperatura apei
  • Hartă satelitară
  • Meteo pe hartă
  • Widget-uri
  • user-avatar
    Intrare

    Meteo pe oră la Pervomayskiy

    Astăzi, 23 Octombrie, Marţi

    Timp Temperatura Precipitaţii Vânt Presiune Umiditate
    00:00 +3°C° 0.4 mm 5 m/s 743 mmHg 83%
    01:00 +3°C° 0.4 mm 5 m/s 742 mmHg 84%
    02:00 +5°C° 0 mm 5 m/s 741 mmHg 86%
    03:00 +5°C° 0.7 mm 5 m/s 741 mmHg 87%
    04:00 +5°C° 0.7 mm 4 m/s 740 mmHg 88%
    05:00 +5°C° 0.7 mm 4 m/s 740 mmHg 89%
    06:00 +5°C° 0.3 mm 4 m/s 740 mmHg 89%
    07:00 +5°C° 0.3 mm 4 m/s 739 mmHg 89%
    08:00 +5°C° 0 mm 4 m/s 739 mmHg 88%
    09:00 +7°C° 0 mm 3 m/s 739 mmHg 83%
    10:00 +7°C° 0 mm 3 m/s 739 mmHg 79%
    11:00 +7°C° 0 mm 3 m/s 739 mmHg 75%
    12:00 +7°C° 0 mm 3 m/s 738 mmHg 73%
    13:00 +7°C° 0 mm 2 m/s 738 mmHg 71%
    14:00 +7°C° 0 mm 2 m/s 738 mmHg 70%
    15:00 +6°C° 0 mm 2 m/s 737 mmHg 73%
    16:00 +6°C° 0 mm 2 m/s 737 mmHg 75%
    17:00 +6°C° 0 mm 1 m/s 736 mmHg 78%
    18:00 +6°C° 0 mm 1 m/s 736 mmHg 80%
    19:00 +5°C° 0 mm 2 m/s 735 mmHg 81%
    20:00 +4°C° 0 mm 2 m/s 735 mmHg 82%
    21:00 +4°C° 0 mm 2 m/s 734 mmHg 83%
    22:00 +4°C° 0 mm 2 m/s 733 mmHg 83%
    23:00 +4°C° 0 mm 2 m/s 733 mmHg 84%

    Mâine, 24 Octombrie, Miercuri

    Timp Temperatura Precipitaţii Vânt Presiune Umiditate
    00:00 +4°C° 0 mm 2 m/s 732 mmHg 85%
    01:00 +3°C° 0 mm 2 m/s 732 mmHg 86%
    02:00 +3°C° 0 mm 2 m/s 731 mmHg 86%
    03:00 +3°C° 0.1 mm 2 m/s 730 mmHg 88%
    04:00 +3°C° 0.1 mm 2 m/s 730 mmHg 89%
    05:00 +3°C° 0.1 mm 2 m/s 729 mmHg 90%
    06:00 +4°C° 0.2 mm 2 m/s 729 mmHg 89%
    07:00 +3°C° 0.2 mm 3 m/s 729 mmHg 87%
    08:00 +3°C° 0.2 mm 3 m/s 729 mmHg 85%
    09:00 +4°C° 0.1 mm 3 m/s 728 mmHg 82%
    10:00 +4°C° 0.1 mm 3 m/s 728 mmHg 78%
    11:00 +5°C° 0.1 mm 3 m/s 728 mmHg 74%
    12:00 +5°C° 0 mm 3 m/s 728 mmHg 74%
    13:00 +5°C° 0 mm 3 m/s 728 mmHg 74%
    14:00 +5°C° 0 mm 3 m/s 728 mmHg 74%
    15:00 +4°C° 0.1 mm 3 m/s 728 mmHg 77%
    16:00 +4°C° 0.1 mm 3 m/s 728 mmHg 81%
    17:00 +4°C° 0.1 mm 2 m/s 728 mmHg 84%
    18:00 +4°C° 0.1 mm 3 m/s 727 mmHg 86%
    19:00 +4°C° 0.1 mm 3 m/s 727 mmHg 88%
    20:00 +4°C° 0.1 mm 3 m/s 727 mmHg 89%
    21:00 +4°C° 0.4 mm 3 m/s 727 mmHg 90%
    22:00 +3°C° 0.4 mm 3 m/s 727 mmHg 92%
    23:00 +3°C° 0.4 mm 3 m/s 727 mmHg 93%

    Poimâine, 25 Octombrie, Joi

    Timp Temperatura Precipitaţii Vânt Presiune Umiditate
    00:00 +3°C° 1.4 mm 3 m/s 726 mmHg 93%
    01:00 +3°C° 1.4 mm 4 m/s 726 mmHg 93%
    02:00 +3°C° 1.4 mm 4 m/s 726 mmHg 93%
    03:00 +3°C° 0.8 mm 4 m/s 725 mmHg 93%
    04:00 +3°C° 0.8 mm 3 m/s 725 mmHg 93%
    05:00 +4°C° 0.8 mm 3 m/s 725 mmHg 93%
    06:00 +4°C° 0.4 mm 3 m/s 725 mmHg 93%
    07:00 +4°C° 0.4 mm 3 m/s 724 mmHg 93%
    08:00 +4°C° 0.4 mm 3 m/s 724 mmHg 93%
    09:00 +4°C° 1.7 mm 4 m/s 724 mmHg 92%
    10:00 +3°C° 1.7 mm 4 m/s 723 mmHg 91%
    11:00 +2°C° 1.7 mm 5 m/s 723 mmHg 91%
    12:00 +2°C° 2.1 mm 5 m/s 723 mmHg 89%
    13:00 +2°C° 2.1 mm 6 m/s 722 mmHg 88%
    14:00 +2°C° 2.1 mm 6 m/s 722 mmHg 86%
    15:00 +2°C° 1.5 mm 7 m/s 722 mmHg 86%
    16:00 0°C° 1.5 mm 7 m/s 722 mmHg 85%
    17:00 0°C° 1.5 mm 8 m/s 722 mmHg 85%
    18:00 0°C° 1.2 mm 8 m/s 722 mmHg 85%
    19:00 0°C° 1.2 mm 8 m/s 722 mmHg 85%
    20:00 -1°C° 1.2 mm 8 m/s 722 mmHg 85%
    21:00 -1°C° 0.8 mm 7 m/s 722 mmHg 85%
    22:00 -1°C° 0.8 mm 7 m/s 722 mmHg 85%
    23:00 -1°C° 0.8 mm 7 m/s 723 mmHg 85%

    26 Octombrie, Vineri

    Timp Temperatura Precipitaţii Vânt Presiune Umiditate
    00:00 -1°C° 0.3 mm 7 m/s 723 mmHg 84%
    01:00 -1°C° 0.3 mm 7 m/s 724 mmHg 83%
    02:00 -1°C° 0.3 mm 7 m/s 724 mmHg 83%
    03:00 -1°C° 0.1 mm 7 m/s 724 mmHg 82%
    04:00 -1°C° 0.1 mm 7 m/s 725 mmHg 82%
    05:00 -1°C° 0.1 mm 7 m/s 726 mmHg 82%
    06:00 -1°C° 0.1 mm 7 m/s 726 mmHg 82%
    07:00 -1°C° 0.1 mm 7 m/s 727 mmHg 83%
    08:00 -1°C° 0.1 mm 7 m/s 727 mmHg 83%
    09:00 -1°C° 0 mm 7 m/s 728 mmHg 82%
    10:00 -1°C° 0 mm 7 m/s 728 mmHg 80%
    11:00 -1°C° 0 mm 7 m/s 729 mmHg 79%
    12:00 +1°C° 0 mm 6 m/s 729 mmHg 78%
    13:00 +1°C° 0 mm 6 m/s 730 mmHg 77%
    14:00 +1°C° 0 mm 6 m/s 730 mmHg 76%
    15:00 -1°C° 0 mm 6 m/s 731 mmHg 77%
    16:00 0°C° 0 mm 5 m/s 731 mmHg 78%
    17:00 0°C° 0 mm 5 m/s 732 mmHg 79%
    18:00 -1°C° 0 mm 5 m/s 732 mmHg 81%
    19:00 -1°C° 0 mm 5 m/s 732 mmHg 82%
    20:00 -1°C° 0 mm 5 m/s 733 mmHg 83%
    21:00 -1°C° 0 mm 5 m/s 733 mmHg 84%
    22:00 -1°C° 0 mm 5 m/s 733 mmHg 84%
    23:00 -1°C° 0 mm 5 m/s 734 mmHg 85%

    27 Octombrie, Sâmbătă

    Timp Temperatura Precipitaţii Vânt Presiune Umiditate
    00:00 -1°C° 0 mm 5 m/s 734 mmHg 86%
    01:00 -2°C° 0 mm 5 m/s 734 mmHg 87%
    02:00 -2°C° 0 mm 5 m/s 735 mmHg 88%
    03:00 -2°C° 0 mm 5 m/s 735 mmHg 89%
    04:00 -2°C° 0 mm 5 m/s 735 mmHg 90%
    05:00 -1°C° 0 mm 4 m/s 735 mmHg 91%
    06:00 -1°C° 0 mm 4 m/s 736 mmHg 91%
    07:00 -1°C° 0 mm 4 m/s 736 mmHg 90%
    08:00 -1°C° 0 mm 4 m/s 736 mmHg 90%
    09:00 0°C° 0 mm 4 m/s 735 mmHg 89%
    10:00 0°C° 0 mm 4 m/s 735 mmHg 88%
    11:00 +1°C° 0 mm 4 m/s 735 mmHg 87%
    12:00 +1°C° 0.8 mm 4 m/s 734 mmHg 88%
    13:00 +1°C° 0.8 mm 4 m/s 733 mmHg 89%
    14:00 +1°C° 0.8 mm 4 m/s 732 mmHg 90%
    15:00 +1°C° 0.9 mm 4 m/s 731 mmHg 91%
    16:00 +1°C° 0.9 mm 4 m/s 731 mmHg 92%
    17:00 +3°C° 0.9 mm 4 m/s 730 mmHg 93%
    18:00 +3°C° 0.4 mm 4 m/s 730 mmHg 92%
    19:00 +2°C° 0.4 mm 5 m/s 730 mmHg 91%
    20:00 +2°C° 0.4 mm 5 m/s 730 mmHg 90%
    21:00 +2°C° 0.6 mm 5 m/s 731 mmHg 89%
    22:00 +2°C° 0.6 mm 5 m/s 731 mmHg 88%
    23:00 +2°C° 0.6 mm 5 m/s 731 mmHg 87%

    28 Octombrie, Duminică

    Timp Temperatura Precipitaţii Vânt Presiune Umiditate
    00:00 +1°C° 0.1 mm 5 m/s 732 mmHg 88%
    01:00 +1°C° 0.1 mm 5 m/s 733 mmHg 89%
    02:00 +1°C° 0.1 mm 4 m/s 733 mmHg 90%
    03:00 +1°C° 0.1 mm 4 m/s 734 mmHg 91%
    04:00 +1°C° 0.1 mm 4 m/s 735 mmHg 92%
    05:00 0°C° 0.1 mm 4 m/s 737 mmHg 92%
    06:00 0°C° 0.1 mm 4 m/s 738 mmHg 91%
    07:00 +1°C° 0.1 mm 3 m/s 739 mmHg 91%
    08:00 +1°C° 0.1 mm 3 m/s 740 mmHg 90%
    09:00 +1°C° 0 mm 3 m/s 742 mmHg 88%
    10:00 +1°C° 0 mm 3 m/s 743 mmHg 86%
    11:00 +2°C° 0 mm 3 m/s 744 mmHg 84%
    12:00 +2°C° 0.1 mm 3 m/s 745 mmHg 84%
    13:00 +2°C° 0.1 mm 3 m/s 746 mmHg 84%
    14:00 +2°C° 0.1 mm 3 m/s 746 mmHg 83%
    15:00 +2°C° 0 mm 2 m/s 747 mmHg 86%
    16:00 +2°C° 0 mm 2 m/s 748 mmHg 88%
    17:00 +1°C° 0 mm 2 m/s 748 mmHg 91%
    18:00 +1°C° 0 mm 2 m/s 749 mmHg 92%
    19:00 -1°C° 0 mm 2 m/s 749 mmHg 92%
    20:00 -1°C° 0 mm 2 m/s 750 mmHg 92%
    21:00 -1°C° 0 mm 2 m/s 750 mmHg 93%
    22:00 -1°C° 0 mm 2 m/s 751 mmHg 93%
    23:00 +1°C° 0 mm 2 m/s 751 mmHg 93%

    29 Octombrie, Luni

    Timp Temperatura Precipitaţii Vânt Presiune Umiditate
    00:00 -1°C° 0 mm 2 m/s 752 mmHg 94%
    01:00 -1°C° 0 mm 2 m/s 752 mmHg 94%
    02:00 -2°C° 0 mm 2 m/s 753 mmHg 95%
    03:00 -2°C° 0 mm 2 m/s 753 mmHg 94%
    04:00 -2°C° 0 mm 2 m/s 753 mmHg 94%
    05:00 -2°C° 0 mm 2 m/s 753 mmHg 94%
    06:00 0°C° 0 mm 1 m/s 754 mmHg 93%
    07:00 0°C° 0 mm 1 m/s 754 mmHg 91%
    08:00 +1°C° 0 mm 1 m/s 754 mmHg 89%
    09:00 +1°C° 0 mm 1 m/s 755 mmHg 87%
    10:00 +2°C° 0 mm 1 m/s 755 mmHg 84%
    11:00 +1°C° 0 mm 0 m/s 755 mmHg 81%
    12:00 +2°C° 0 mm 0 m/s 755 mmHg 82%
    13:00 +2°C° 0 mm 0 m/s 755 mmHg 82%
    14:00 +2°C° 0 mm 0 m/s 755 mmHg 83%
    15:00 +2°C° 0.1 mm 1 m/s 755 mmHg 85%
    16:00 +2°C° 0.1 mm 1 m/s 755 mmHg 87%
    17:00 +1°C° 0.1 mm 2 m/s 755 mmHg 89%
    18:00 +1°C° 0.3 mm 2 m/s 755 mmHg 90%
    19:00 +1°C° 0.3 mm 2 m/s 755 mmHg 90%
    20:00 +1°C° 0.3 mm 2 m/s 755 mmHg 91%
    21:00 0°C° 0.4 mm 3 m/s 755 mmHg 91%
    22:00 0°C° 0.4 mm 3 m/s 755 mmHg 91%
    23:00 -1°C° 0.4 mm 4 m/s 754 mmHg 91%
    Arată mai mult